This demonstration page uses our WeatherBlox Daily Observations layout. Learn more.

40.92945, -100.16068

Hourly Observations for March 25, 2018

Temp ( °F °C ) Dew Point ( °F °C ) Humidity (%) Winds ( mph kmh ) Pressure ( in mb ) Visibility ( mi km ) Precip ( " mm )
12:15 am 00:15 Cloudy 32 0.2 29 -1.5 89 89 ESE 15 24 30.12 1020 10 16.0934 0 0
12:35 am 00:35 Cloudy 32 -0.1 28 -2 87 87 ESE 16 26 30.12 1020 10 16.0934 0 0
12:55 am 00:55 Cloudy 32 -0.2 28 -2.1 87 87 ESE 14 22 30.12 1020 10 16.0934 0 0
1:15 am 01:15 Cloudy 31 -0.3 28 -2.1 88 88 ESE 14 22 30.12 1020 10 16.0934 0 0
1:35 am 01:35 Cloudy 32 -0.2 28 -2 88 88 SE 17 28 30.12 1020 10 16.0934 0 0
1:55 am 01:55 Cloudy 31 -0.3 28 -2 88 88 ESE 13 20 30.12 1020 10 16.0934 0 0
2:15 am 02:15 Cloudy 31 -0.4 28 -2 89 89 SE 15 24 30.12 1020 10 16.0934 0 0
2:35 am 02:35 Cloudy 31 -0.5 28 -2 90 90 ESE 15 24 30.12 1020 10 16.0934 0 0
2:55 am 02:55 Cloudy 31 -0.3 29 -1.9 89 89 ESE 14 22 30.09 1019 10 16.0934 0 0
3:15 am 03:15 Cloudy 32 -0.2 29 -1.6 90 90 SE 15 24 30.09 1019 10 16.0934 0 0
3:35 am 03:35 Cloudy 32 -0.1 29 -1.5 90 90 SE 13 20 30.09 1019 10 16.0934 0 0
3:55 am 03:55 Cloudy 32 -0.2 29 -1.5 91 91 SE 9 15 30.09 1019 10 16.0934 0 0
4:15 am 04:15 Cloudy 32 -0.1 29 -1.4 91 91 SE 14 22 30.09 1019 7 11.26538 0 0
4:35 am 04:35 Cloudy 32 -0.2 30 -1.3 92 92 SE 14 22 30.09 1019 7 11.26538 0 0
4:55 am 04:55 Cloudy with Mist and Fog 32 -0.2 30 -1.2 93 93 SE 15 24 30.09 1019 5 8.0467 0 0
5:15 am 05:15 Cloudy with Mist and Fog 32 -0.2 30 -1.2 93 93 SE 14 22 30.06 1018 5 8.0467 0 0
5:35 am 05:35 Cloudy with Mist and Fog 32 -0.2 30 -1.2 93 93 SE 15 24 30.06 1018 5 8.0467 0 0
5:55 am 05:55 Cloudy with Mist and Fog 32 -0.1 30 -1.1 93 93 ESE 9 15 30.06 1018 4 6.43736 0 0
6:15 am 06:15 Cloudy with Mist and Fog 32 -0.1 30 -1 94 94 SE 12 19 30.06 1018 5 8.0467 0 0
6:35 am 06:35 Cloudy with Mist and Fog 32 -0.1 30 -1.1 93 93 SSE 13 20 30.06 1018 5 8.0467 0 0
6:55 am 06:55 Cloudy with Mist and Fog 32 0 30 -1 93 93 SE 8 13 30.09 1019 5 8.0467 0 0
7:15 am 07:15 Cloudy 32 0 30 -1.1 92 92 SE 12 19 30.09 1019 7 11.26538 0 0
7:35 am 07:35 Cloudy with Mist and Fog 32 0 30 -1 93 93 SE 12 19 30.09 1019 5 8.0467 0 0
7:55 am 07:55 Cloudy with Mist and Fog 32 0 30 -1 93 93 SE 10 17 30.09 1019 5 8.0467 0 0
8:15 am 08:15 Cloudy with Mist and Fog 32 0 31 -0.8 94 94 SE 10 17 30.09 1019 3 4.82802 0 0
8:35 am 08:35 Cloudy with Mist and Fog 32 0 31 -0.7 95 95 SSE 9 15 30.12 1020 2 3.21868 0 0
8:55 am 08:55 Cloudy with Mist and Fog 32 0.1 31 -0.5 96 96 SSE 9 15 30.12 1020 2 3.21868 0 0
9:15 am 09:15 Cloudy with Mist and Fog 32 0.1 31 -0.5 96 96 SE 8 13 30.12 1020 1.75 2.816345 0 0
9:35 am 09:35 Cloudy with Mist and Fog 32 0.2 31 -0.5 95 95 SE 9 15 30.12 1020 1.75 2.816345 0 0
9:55 am 09:55 Cloudy with Mist and Fog 33 0.3 31 -0.5 94 94 S 8 13 30.12 1020 2.5 4.02335 0 0
10:15 am 10:15 Cloudy with Mist and Fog 33 0.4 31 -0.5 94 94 SSE 8 13 30.12 1020 3 4.82802 0 0
10:35 am 10:35 Cloudy with Mist and Fog 33 0.5 31 -0.4 94 94 SSE 10 17 30.12 1020 4 6.43736 0 0
10:55 am 10:55 Cloudy with Mist and Fog 33 0.7 32 0 95 95 SSE 10 17 30.09 1019 5 8.0467 0 0
11:15 am 11:15 Cloudy with Mist and Fog 33 0.8 32 -0.1 94 94 SSE 10 17 30.09 1019 5 8.0467 0 0
11:35 am 11:35 Cloudy with Mist and Fog 34 1 32 -0.1 92 92 SSE 9 15 30.09 1019 5 8.0467 0 0
11:55 am 11:55 Cloudy with Mist and Fog 34 1.1 32 0 92 92 SSE 9 15 30.09 1019 5 8.0467 0 0
12:15 pm 12:15 Cloudy with Mist and Fog 34 1.2 32 0 92 92 SE 9 15 30.09 1019 5 8.0467 0 0
12:35 pm 12:35 Cloudy with Mist and Fog 35 1.5 32 0.2 91 91 SSE 9 15 30.06 1018 4 6.43736 0 0
12:55 pm 12:55 Cloudy with Mist and Fog 35 1.5 32 0.1 91 91 SE 9 15 30.06 1018 5 8.0467 0 0
1:15 pm 13:15 Cloudy with Mist and Fog 35 1.6 32 0.2 91 91 SE 8 13 30.06 1018 4 6.43736 0 0
1:35 pm 13:35 Cloudy 36 2 32 0.2 88 88 SE 8 13 30.06 1018 10 16.0934 0 0
1:55 pm 13:55 Cloudy 36 2.2 32 0.1 86 86 SSE 9 15 30.06 1018 10 16.0934 0 0
2:15 pm 14:15 Cloudy 37 2.5 32 0.1 84 84 ESE 7 11 30.03 1017 10 16.0934 0 0
2:35 pm 14:35 Cloudy 37 2.6 33 0.3 85 85 SE 8 13 30.03 1017 10 16.0934 0 0
2:55 pm 14:55 Cloudy 37 2.7 33 0.5 86 86 SSE 10 17 30.03 1017 10 16.0934 0 0
3:15 pm 15:15 Cloudy 37 2.5 33 0.5 87 87 SE 9 15 30 1016 10 16.0934 0 0
3:35 pm 15:35 Cloudy 37 2.6 33 0.5 86 86 SSE 8 13 30 1016 10 16.0934 0 0
3:55 pm 15:55 Cloudy 37 2.7 33 0.6 86 86 SE 9 15 30 1016 10 16.0934 0 0
4:15 pm 16:15 Cloudy 37 2.6 33 0.7 87 87 SE 8 13 30 1016 10 16.0934 0 0
4:35 pm 16:35 Cloudy 37 2.7 33 0.8 87 87 SE 8 13 30 1016 7 11.26538 0 0
4:55 pm 16:55 Cloudy 37 2.8 34 1 88 88 SE 10 17 30 1016 7 11.26538 0 0
5:15 pm 17:15 Cloudy 37 2.7 34 0.9 88 88 ESE 10 17 30 1016 7 11.26538 0 0
5:35 pm 17:35 Cloudy with Mist and Fog 37 2.5 34 1 90 90 ESE 8 13 30 1016 4 6.43736 0 0
5:55 pm 17:55 Cloudy with Mist and Fog 36 2.3 34 1.1 92 92 SE 10 17 30 1016 3 4.82802 0 0
6:15 pm 18:15 Cloudy with Mist and Fog 36 2.3 34 1.2 93 93 ESE 7 11 30 1016 3 4.82802 0 0
6:35 pm 18:35 Cloudy with Mist and Fog 36 2.3 34 1.2 93 93 ESE 9 15 30 1016 2 3.21868 0 0
6:55 pm 18:55 Cloudy with Mist and Fog 36 2.2 34 1.2 93 93 ESE 7 11 30 1016 1.5 2.41401 0 0
7:15 pm 19:15 Cloudy with Mist and Fog 36 2.2 34 1.2 93 93 SE 9 15 30 1016 1.5 2.41401 0 0
7:35 pm 19:35 Cloudy with Mist and Fog 36 2.3 35 1.5 95 95 SE 8 13 30 1016 1.75 2.816345 0 0
7:55 pm 19:55 Cloudy with Mist and Fog 37 2.5 35 1.5 93 93 ESE 5 7 30 1016 1.25 2.011675 0 0
8:15 pm 20:15 Cloudy with Mist and Fog 37 2.5 35 1.5 93 93 ESE 6 9 30 1016 1.75 2.816345 0 0
8:35 pm 20:35 Cloudy with Mist and Fog 37 2.5 35 1.6 94 94 E 6 9 30 1016 2 3.21868 0 0
8:55 pm 20:55 Cloudy with Mist and Fog 36 2.3 35 1.4 94 94 E 8 13 30 1016 1.5 2.41401 0 0
9:15 pm 21:15 Cloudy with Mist and Fog 36 2.1 34 1.3 95 95 E 9 15 30 1016 2 3.21868 0 0
9:35 pm 21:35 Cloudy with Mist and Fog 36 2 34 1.2 95 95 E 8 13 30 1016 3 4.82802 0 0
9:55 pm 21:55 Cloudy with Mist and Fog 36 2 34 1.2 95 95 ENE 10 17 30 1016 2.5 4.02335 0 0
10:15 pm 22:15 Cloudy with Mist and Fog 35 1.8 34 1 95 95 ENE 9 15 30 1016 3 4.82802 0 0
10:35 pm 22:35 Cloudy with Mist and Fog 35 1.8 34 1 95 95 ENE 10 17 30 1016 3 4.82802 0 0
10:55 pm 22:55 Cloudy with Mist and Fog 35 1.6 33 0.8 94 94 ENE 12 19 30 1016 3 4.82802 0 0
11:15 pm 23:15 Cloudy with Mist and Fog 35 1.6 33 0.7 94 94 ENE 10 17 30 1016 4 6.43736 0 0
11:35 pm 23:35 Cloudy with Mist and Fog 35 1.6 33 0.7 94 94 ENE 14 22 30 1016 4 6.43736 0 0
11:55 pm 23:55 Cloudy with Mist and Fog 35 1.6 33 0.7 94 94 ENE 10 17 30 1016 4 6.43736 0 0

Powered by AerisWeather